Location: Newark
(44.6028°N, 124.0883°W)
Time: 19:27:09
(UTC+00:00)

Vanguard 1 Rocket - Pass Details

Date: 29 October 2019
Orbit: 651 x 4226 km, 34.3° (Epoch: 19 November)

Event Time Altitude Azimuth Distance (km) Brightness Sun altitude
Rises 14:07:07 0° 179° (S) 3,743 10.7 -8.2°
Reaches altitude 10° 14:11:35 10° 149° (SSE) 3,335 10.9 -7.4°
Maximum altitude 14:14:40 12° 128° (SE) 3,551 11.6 -6.9°
Drops below altitude 10° 14:18:21 10° 107° (ESE) 4,211 12.6 -6.2°
Sets 14:26:10 0° 83° (E) 6,185 13.2 -4.9°
